Probability
0 0 0 0 0 0 0 0 0 0 0 0 0 0 0 0 0 0 0 0 0 0 0 0 0 0 0 0 0 0 0 0 0 0 0 0 0 0
0 0 0 0 0 0 0 0 0 0 0 0 0 0 0 0 0 0 0 0 0 0 0 0 0 0 0 0 0 0 0 0 0 0 0 0 0 0
0 0 0 0 0 0 0 0 0 0 0 0 0 0 0 0 0 0 0 0 0 0 0 0 0 0 0 0 0 0 0 0 0 0 0 0 0 0
0 0 0 0 0 0 0 0 0 0 0 0 0 0 0 0 0 0 0 0 0 0 0 0 0 0 0 0 0 0 0 0 0 0 0 0 0 0
0 0 0 0 0 0 0 0 0 0 0 0 0 0 0 0 0 0 0 0 0 0 0 0 0 0 0 0 0 0 0 0 0 0 0 0 0 0
0 0 0 0 0 0 0 0 0 0 0 0 0 0 0 0 0 0 0 0 0 0 0 0 0 0 0 0 0 0 0 0 0 0 0 0 0 0
0 0 0 0 0 0 0 0 0 0 0 0 0 0 0 0 0 0 0 0 0 0 0 0 0 0 0 0 0 0 0 0 0 0 0 0 0 0
0 0 0 0 0 0 0 0 0 0 0 0 0 0 0 0 0 0 0 0 0 0 0 0 0 0 0 0 0 0 0 0 0 0 0 0 0 0
0 0 0 0 0 0 0 0 0 0 0 0 0 0 0 0 0 0 0 0 0 0 0 0 0 0 0 0 0 0 0 0 0 0 0 0 0 0
0 0 0 0 0 0 0 0 0 0 0 0 0 0 0 0 0 0 0 0 0 0 0 0 0 0 0 0 0 0 0 0 0 0 0 0 0 0
0 0 0 0 0 0 0 0 0 0 0 0 0 0 0 0 0 0 0 0 0 0 0 0 0 0 0 0 0 0 0 0 0 0 0 0 0 0
0 0 0 0 0 0 0 0 0 0 0 0 0 0 0 0 0 0 0 0 0 0 0 0 0 0 0 0 0 0 0 0 0 0 0 0 0 0
0 0 0 0 0 0 0 0 0 0 0 0 0 0 0 0 0 0 0 0 0 0 0 0 0 0 0 0 0 0 0 0 0 0 0 0 0 0
0 0 0 0 0 0 0 0 0 0 0 0 0 0 0 0 0 0 0 0 0 0 0 0 0 0 0 0 0 0 0 0 0 0 0 0 0 0
0 0 0 0 0 0 0 0 0 0 0 0 0 0 0 0 0 0 0 0 0 0 0 0 0 0 0 0 0 0 0 0 0 0 0 0 0 0
0 0 0 0 0 0 0 0 0 0 0 0 0 0 0 0 0 0 0 0 0 0 0 0 0 0 0 0 0 0 0 0 0 0 0 0 0 0
0 0 0 0 0 0 0 0 0 0 0 0 0 0 0 0 0 0 0 0 0 0 0 0 0 0 0 0 0 0 0 0 0 0 0 0 0 0
0 0 0 0 0 0 0 0 0 0 0 0 0 0 0 0 0 0 0 0 0 0 0 0 0 0 0 0 0 0 0 0 0 0 0 0 0 0
0 0 0 0 0 0 0 0 0 0 0 0 0 0 0 0 0 0 0 0 0 0 0 0 0 0 0 0 0 0 0 0 0 0 0 0 0 0
0 0 0 0 0 0 0 0 0 0 0 0 0 0 0 0 0 0 0 0 0 0 0 0 0 0 0 0 0 0 0 0 0 0 0 0 0 0
0 0 0 0 0 0 0 0 0 0 0 0 0 0 0 0 0 0 0 0 0 0 0 0 0 0 0 0 0 0 0 0 0 0 0 0 0 0
0 0 0 0 0 0 0 0 0 0 0 0 0 0 0 0 0 0 0 0 0 0 0 0 0 0 0 0 0 0 0 0 0 0 0 0 0 0
0 0 0 0 0 0 0 0 0 0 0 0 0 0 0 0 0 0 0 0 0 0 0 0 0 0 0 0 0 0 0 0 0 0 0 0 0 0
Wind_Speed
5 6 5 4 4 3 3 4 5 5 5 4 3 2 3 3 5 4 3 4 4 3 2 2 2 3 4 5 7 7 7 7 8 7 7 6 6 6
4 5 5 4 4 4 4 3 3 4 4 3 2 3 4 3 6 4 3 5 4 3 2 1 1 1 3 5 6 7 7 6 6 7 6 5 4 4
6 7 7 5 5 4 4 4 4 4 4 2 1 2 4 4 4 3 3 2 2 4 3 2 1 1 2 4 6 7 7 5 5 5 5 5 4 4
7 7 7 5 6 5 4 4 4 4 4 4 3 3 3 4 4 4 2 2 2 4 5 3 2 0 2 4 5 7 7 5 5 5 5 5 4 4
7 7 7 7 7 5 5 5 4 3 3 4 4 2 2 3 3 2 2 2 2 3 4 4 3 1 1 2 4 5 6 5 4 4 4 4 5 5
5 6 7 8 8 8 6 6 5 5 4 4 4 3 3 3 3 3 3 2 2 1 2 2 2 1 1 1 3 4 5 5 4 3 4 5 5 6
4 5 5 7 9 8 7 7 7 6 5 5 4 4 4 4 5 4 4 2 2 2 1 1 0 0 1 2 2 2 3 4 3 3 4 5 6 6
5 4 4 6 9 12 12 12 12 9 8 6 5 6 6 5 4 4 4 3 3 3 3 2 1 1 1 1 1 1 2 2 2 3 4 5 6 6
5 4 4 5 7 6 9 12 12 14 12 8 7 7 7 7 7 6 5 4 4 4 4 2 1 2 1 2 2 1 0 1 2 3 4 5 6 6
5 6 6 6 6 7 6 6 6 7 9 7 7 7 6 7 8 7 6 4 3 2 3 3 2 2 1 1 3 2 1 1 2 4 4 5 6 7
5 6 6 7 11 12 8 7 6 5 6 8 9 8 10 11 9 6 6 4 3 3 2 3 3 2 1 1 2 2 2 3 3 4 5 5 6 6
4 5 10 11 13 14 9 9 9 7 6 6 6 6 6 8 12 8 7 5 4 4 4 4 3 3 2 1 1 1 1 2 4 4 4 4 5 4
5 4 6 13 15 15 13 9 11 9 7 7 5 4 3 3 4 4 5 5 5 4 5 5 4 3 3 2 1 0 0 1 1 1 2 3 4 4
5 5 6 11 14 15 12 12 15 12 6 6 6 5 5 4 3 4 4 3 2 4 6 6 4 5 4 3 2 1 0 1 1 1 1 1 2 3
5 8 10 12 12 11 14 15 13 8 7 7 7 6 5 5 5 4 4 5 5 4 4 3 4 4 4 4 3 3 2 2 2 2 1 1 1 1
6 8 12 12 10 10 10 10 8 8 8 8 7 5 6 5 4 4 4 4 3 2 3 3 4 5 4 3 3 3 3 3 3 2 2 1 1 1
7 5 4 4 5 5 5 5 6 7 8 7 7 7 7 7 5 4 4 4 4 4 3 2 3 3 3 4 3 3 3 2 2 3 2 1 2 2
9 5 6 6 6 6 6 6 7 7 7 7 8 8 8 8 7 5 4 4 4 4 4 4 3 3 2 1 4 4 3 3 2 3 3 2 2 2
7 5 6 6 6 6 6 7 7 7 8 8 8 8 8 8 8 7 6 5 4 4 4 4 4 5 4 3 3 6 5 3 3 3 3 3 3 2
5 5 6 6 6 6 6 6 6 7 8 8 9 9 9 9 9 8 8 7 5 5 5 4 5 5 6 5 3 3 6 5 4 4 3 2 2 3
6 5 5 5 5 5 5 6 6 7 8 8 9 9 9 9 8 8 8 11 8 6 7 7 6 8 3 3 2 1 2 6 6 4 4 3 1 1
6 5 5 5 5 5 5 5 6 7 9 9 9 9 9 9 9 10 9 9 8 6 6 4 6 6 4 4 3 3 2 2 4 7 7 7 5 4
6 5 5 5 5 4 5 5 7 6 7 8 9 9 10 9 9 9 9 8 7 7 6 6 6 5 4 4 4 3 3 3 3 3 3 7 9 7
Wind_Direction
206 203 202 197 193 189 171 169 169 187 209 195 179 172 160 156 160 146 148 161 152 137 120 92 58 26 7 353 346 338 335 332 326 321 314 308 289 273
200 202 204 194 190 184 178 178 176 176 191 175 171 160 161 164 170 154 166 172 173 172 166 150 99 23 6 356 348 341 334 331 331 332 323 325 320 299
206 204 206 194 189 185 178 173 173 163 171 154 138 139 152 167 160 155 162 166 182 191 189 186 174 28 1 356 352 348 342 335 340 338 335 344 348 347
212 206 203 191 191 183 178 184 179 168 158 167 163 159 164 171 162 166 170 175 185 203 200 191 193 213 354 354 353 351 352 348 348 352 356 360 9 9
209 203 201 191 192 185 182 181 177 169 153 155 162 156 147 151 150 165 170 176 195 209 206 201 201 202 328 346 347 353 357 0 7 11 11 21 31 32
215 207 201 194 192 187 187 185 174 170 160 156 159 156 153 149 154 169 186 195 202 200 203 199 205 245 295 331 348 0 5 7 13 28 43 50 50 47
223 215 211 203 197 194 190 185 178 176 172 175 174 167 174 171 183 174 186 172 199 194 177 206 181 335 323 318 352 8 9 15 28 49 67 67 60 57
228 224 217 207 206 206 202 193 185 182 186 186 188 193 192 186 169 169 162 164 210 197 170 199 164 193 240 275 300 349 6 26 43 60 76 80 73 69
230 221 221 217 208 202 205 202 201 201 193 186 192 197 185 184 170 170 177 180 195 172 153 184 172 197 235 265 238 249 86 70 70 77 82 84 79 74
236 225 220 214 207 196 192 195 199 204 200 195 195 192 185 177 177 176 174 149 102 126 151 170 181 195 196 285 258 216 185 139 111 98 88 85 83 79
246 233 223 220 215 206 197 195 198 209 206 192 189 186 184 181 168 142 145 150 166 187 176 158 161 150 159 250 283 245 202 169 137 119 104 95 91 82
250 237 231 229 222 214 206 198 203 201 179 176 177 179 178 184 183 174 168 163 151 185 186 158 152 143 174 253 280 329 335 177 152 135 123 113 104 86
254 243 237 233 230 223 217 210 209 188 176 172 165 155 144 149 162 165 169 163 160 182 170 149 147 150 154 168 218 243 129 80 74 93 123 129 125 120
265 253 245 241 237 230 225 218 207 189 168 169 171 175 174 171 159 151 150 140 140 165 163 149 148 157 146 151 191 185 161 149 133 123 65 132 124 139
269 266 262 252 247 238 229 219 203 185 171 179 188 187 174 157 138 122 106 102 81 75 121 144 142 142 142 156 165 163 167 190 171 153 149 140 136 107
273 265 264 258 249 239 226 219 201 185 183 186 182 163 146 147 152 147 144 141 122 94 61 93 138 141 142 151 154 169 174 176 170 167 158 175 188 180
283 267 252 244 234 227 216 205 190 185 188 174 167 162 163 163 163 155 143 145 151 155 148 105 90 97 128 147 157 178 169 171 171 158 151 181 229 214
281 260 249 240 236 228 217 207 197 192 183 175 172 172 171 171 166 160 155 159 164 164 161 152 137 109 81 290 199 171 168 170 165 162 153 166 239 237
271 255 249 242 237 230 223 213 204 192 180 177 177 175 172 171 170 172 172 167 170 167 163 157 157 152 162 201 212 191 169 161 154 162 177 179 205 231
255 254 251 244 237 231 225 218 204 186 182 182 179 175 173 174 175 178 178 175 172 166 164 171 181 179 179 180 178 186 184 163 162 169 172 173 228 266
263 255 249 243 237 233 227 218 205 193 187 184 181 177 176 175 179 179 179 184 177 175 185 191 194 172 130 110 121 157 188 193 175 165 156 150 179 224
267 261 250 239 236 232 224 215 206 197 190 187 183 179 178 179 179 178 179 181 184 183 178 158 144 150 154 171 176 164 159 162 195 194 188 179 170 190
268 263 254 244 233 227 221 211 206 200 193 187 182 179 177 179 178 178 179 179 176 171 160 157 160 167 175 174 172 169 168 165 165 183 224 226 225 229